Tracking 31027 objects as of 19-Jul-2025
HD Live streaming from Space Station
objects crossing your sky now

DELTA 1 DEB

Track DELTA 1 DEB now!
10-day predictions


NORAD ID: 10845
Int'l Code: 1976-077CR
Perigee: 1,502.3 km
Apogee: 1,783.6 km
Inclination: 102.3 °
Period: 119.0 minutes
Semi major axis: 8013 km
RCS: 0.0199 m2 (small)
Launch date: July 29, 1976
Source: United States (US)
Launch site: AIR FORCE WESTERN TEST RANGE (AFWTR)

Note: This is SATELLITE DEBRIS
Your satellite tracking list
STARLINK-2062
Track 1 satellite(s)




NASA's NSSDC Master Catalog

Two Line Element Set (TLE):
1 10845U 76077CR  25193.79486044 -.00000145  00000-0 -10725-2 0  9996
2 10845 102.3320 304.4038 0175480  78.3022  73.9715 12.10127339162404
Source of the keplerian elements: AFSPC